Location: Marion Hill
(40.7303°N, 80.2959°W)
Time: 17:43:01
(UTC+00:00)

USA 306 - Pass Details

Date: 29 October 2020
Orbit: 569 x 577 km, 54.0° (Epoch: 22 November)

Event Time Altitude Azimuth Distance (km) Brightness Sun altitude
Rises 22:43:05 0° 314° (NW) 2,786 6.9 -5.0°
Reaches altitude 10° 22:45:46 10° 330° (NNW) 1,884 5.8 -5.4°
Maximum altitude 22:49:09 22° 22° (NNE) 1,266 4.4 -6.1°
Drops below altitude 10° 22:52:32 10° 75° (ENE) 1,876 4.8 -6.7°
Enters shadow 22:52:56 - 78° (ENE) 2,003 5.0 -6.8°
